Volver al catálogo

STARLINK-32285

ActivoComunicacionesVLEO
NORAD 60355·PAYLOAD·🇺🇸 United States

Lanzado Aug 4, 2024 desde Vandenberg Space Force Base

Loading…

Próximos Pases (próximas 24 horas)

TLE

ActualizadoSource: CelesTrak SupGP

Época: Sep 14, 2026, 21:05 UTC

1 60355C 24138A   26257.87895833 -.00057795  00000+0 -17070-2 0  2578
2 60355  53.1558 147.7744 0001301  93.9217  13.1680 15.34429960    11

Sigue STARLINK-32285 en tiempo real con AllMySat

Download on the App Store